{"data":{"norad_id":63656,"epoch":"2026-05-25T02:28:52.849344Z","epoch_age_seconds":62289,"freshness":"FRESH","line1":"1 63656U 25083Y   26145.10338946  .00039838  00000+0  14482-2 0  9997","line2":"2 63656  42.9944 293.6350 0000697 338.1060  21.9761 15.27607994 61789","mean_motion":15.27607994,"eccentricity":6.97e-5,"inclination_deg":42.9944,"raan_deg":293.635,"arg_perigee_deg":338.106,"mean_anomaly_deg":21.9761,"bstar":0.0014482,"rev_number":6178,"period_min":94.265021239474,"perigee_km":482.48705438451,"apogee_km":483.4434920414,"semimajor_km":6861.102273213,"source":"CELESTRAK","updated_at":"2026-05-25T13:38:20.056920Z"}}